Location: Yellowknife
(62.4500°N, 114.3500°W)
Time: 04:47:16
(UTC-06:00)

N. Korean satellite - Visible Passes

Search period start: 19 October 2018 00:00
Search period end: 29 October 2018 00:00
Orbit: 459 x 510 km, 97.2° (Epoch: 18 October)

Date Brightness Start Highest point End Pass type
(mag) Time Alt. Az. Time Alt. Az. Time Alt. Az.
19 Oct 9.4 07:22:42 10° NE 07:25:49 25° E 07:28:53 10° SSE visible
19 Oct 9.0 19:42:33 10° SSW 19:45:52 29° W 19:49:13 10° NNW visible
20 Oct 10.0 06:58:43 10° NE 07:01:08 16° E 07:03:31 10° SE visible
20 Oct 8.0 19:17:40 10° S 19:21:17 45° W 19:24:56 10° NNW visible
21 Oct 10.5 06:35:27 10° ENE 06:36:23 11° E 06:37:17 10° E visible
21 Oct 7.0 18:53:02 10° S 18:56:47 72° WSW 19:00:33 10° NNW visible
21 Oct 10.2 20:28:54 10° WSW 20:30:56 14° W 20:32:58 10° NW visible
22 Oct 8.6 07:42:43 10° NNE 07:46:09 35° E 07:49:30 10° SSE visible
22 Oct 9.6 20:03:20 10° SW 20:06:13 21° W 20:09:07 10° NW visible
23 Oct 9.5 07:18:32 10° NE 07:21:31 23° E 07:24:27 10° SE visible
23 Oct 8.8 19:38:12 10° SSW 19:41:35 31° W 19:44:58 10° NNW visible
24 Oct 10.1 06:54:36 10° NE 06:56:48 15° E 06:58:59 10° ESE visible
24 Oct 7.8 19:13:21 10° S 19:17:01 48° W 19:20:40 10° NNW visible
25 Oct 6.9 18:48:45 10° SSE 18:52:30 78° WSW 18:56:15 10° NNW visible
25 Oct 10.1 20:24:24 10° WSW 20:26:36 15° W 20:28:48 10° NW visible
26 Oct 8.7 07:38:28 10° NNE 07:41:48 32° E 07:45:05 10° SSE visible
26 Oct 9.4 19:58:54 10° SW 20:01:53 22° W 20:04:52 10° NW visible
27 Oct 9.6 07:14:18 10° NE 07:17:09 21° E 07:19:57 10° SE visible
27 Oct 8.6 19:33:49 10° SSW 19:37:14 33° W 19:40:40 10° NNW visible
28 Oct 10.1 06:50:27 10° NE 06:52:25 14° E 06:54:22 10° ESE visible
28 Oct 7.6 19:09:00 10° S 19:12:40 52° W 19:16:20 10° NNW visible
28 Oct 10.4 20:46:21 10° W 20:47:00 10° W 20:47:37 10° WNW visible
